Location: North Evanston
(42.0634°N, 87.6976°W)
Time: 14:18:20
(UTC+00:00)

Injun/Solrad 3 - Pass Details

Date: 16 May 2026
Orbit: 867 x 989 km, 66.8° (Epoch: 7 June)

Event Time Altitude Azimuth Distance (km) Brightness Sun altitude
Rises 03:56:02 0° 336° (NNW) 3,669 12.4 -23.7°
Reaches altitude 10° 03:59:47 10° 358° (N) 2,736 11.2 -24.0°
Maximum altitude 04:03:34 16° 35° (NE) 2,334 10.3 -24.3°
Drops below altitude 10° 04:07:22 10° 71° (ENE) 2,750 10.3 -24.6°
Enters shadow 04:09:02 - 82° (E) 3,128 10.5 -24.8°
Sets 04:11:08 0° 92° (E) 3,696 - -24.9°
